Home > Weather > Prešov > Past weeks

Flag for Slovakia Past Weather in Prešov, Slovakia — Yesterday and Last 2 Weeks

Now
61 °F

Clear.


Feels Like: 61 °F
Forecast: 52 / 79 °F
Wind: 9 mph from North

Location: Kosice - Barca

Current Time: Aug 25, 2016 at 5:01:15 AM

Latest Report: Aug 25, 2016 at 4:30 AM


Visibility: 10 mi

Pressure: 30.24 "Hg

Humidity: 77%

Dew Point: 54 °F

Location of PrešovLocation

Past Weather in Prešov — Graph

°F

Prešov Temperature Yesterday

Maximum temperature yesterday: 75 °F (at 1:30 PM)
Minimum temperature yesterday: 61 °F (at 3:00 AM)
Average temperature yesterday: 68 °F

High & Low Weather Summary for the Past Weeks

 TemperatureHumidityPressure
High82 °F (Aug 21, 4:00 PM)100% (Aug 15, 4:30 AM)30.30 "Hg (Aug 15, 4:30 AM)
Low45 °F (Aug 12, 4:30 AM)33% (Aug 12, 5:00 PM)29.86 "Hg (Aug 10, 2:30 PM)
Average65 °F72%30.09 "Hg
* Reported Aug 10 4:00 AM — Aug 25 4:00 AM, Prešov, Weather by CustomWeather, © 2016

Note: Actual official high and low records may vary slightly from our data, if they occured in-between our weather recording intervals... More about our weather records

Advertising

Prešov Weather History for the Previous 24 Hours

Scroll right to see more
 ConditionsComfort  
Time TempWeatherWind HumidityBarometerVisibility
4:00 AM
Thu, Aug 25
61 °FClear.10 mph77%30.24 "Hg10 mi
3:30 AM63 °FClear.8 mph73%30.24 "Hg10 mi
3:00 AM63 °FClear.10 mph73%30.24 "Hg10 mi
2:30 AM63 °FClear.12 mph73%30.24 "Hg10 mi
2:00 AM63 °FPassing clouds.3 mph73%30.24 "HgN/A
1:30 AM63 °FClear.9 mph73%30.24 "Hg10 mi
1:00 AM64 °FClear.7 mph68%30.27 "Hg10 mi
12:30 AM64 °FClear.5 mph73%30.27 "Hg10 mi
12:00 AM66 °FClear.6 mph68%30.27 "Hg10 mi
11:30 PM
Wed, Aug 24
64 °FClear.7 mph73%30.27 "Hg10 mi
11:00 PM66 °FClear.1 mph68%30.24 "Hg10 mi
10:30 PM66 °FClear.8 mph68%30.24 "Hg10 mi
10:00 PM66 °FClear.9 mph68%30.24 "Hg10 mi
9:30 PM68 °FClear.10 mph64%30.24 "Hg10 mi
9:00 PM68 °FClear.9 mph64%30.24 "Hg10 mi
8:30 PM68 °FSunny.6 mph60%30.24 "Hg10 mi
8:00 PM68 °FSunny.8 mph60%30.24 "Hg10 mi
7:30 PM72 °FSunny.12 mph53%30.21 "Hg10 mi
7:00 PM73 °FSunny.14 mph50%30.21 "Hg10 mi
6:30 PM73 °FSunny.15 mph53%30.21 "Hg10 mi
6:00 PM73 °FSunny.17 mph53%30.21 "Hg10 mi
5:30 PM75 °FSunny.15 mph50%30.21 "Hg10 mi
5:00 PM75 °FSunny.18 mph50%30.21 "Hg10 mi
4:30 PM75 °FPassing clouds.15 mph54%30.21 "HgN/A
4:00 PM75 °FPassing clouds.17 mph54%30.21 "HgN/A
3:30 PM75 °FPassing clouds.17 mph54%30.21 "HgN/A
3:00 PM75 °FSunny.21 mph50%30.21 "Hg10 mi
2:30 PM75 °FScattered clouds.17 mph54%30.21 "HgN/A
2:00 PM75 °FScattered clouds.20 mph57%30.24 "HgN/A
1:30 PM75 °FScattered clouds.20 mph54%30.24 "HgN/A
1:00 PM73 °FScattered clouds.16 mph57%30.24 "HgN/A
12:30 PM73 °FPassing clouds.18 mph57%30.24 "HgN/A
12:00 PM72 °FScattered clouds.17 mph65%30.24 "HgN/A
11:30 AM73 °FScattered clouds.16 mph65%30.24 "HgN/A
11:00 AM72 °FScattered clouds.17 mph65%30.24 "HgN/A
10:30 AM70 °FScattered clouds.16 mph73%30.27 "HgN/A
10:00 AM70 °FScattered clouds.17 mph73%30.24 "HgN/A
9:30 AM70 °FScattered clouds.15 mph73%30.24 "HgN/A
9:00 AM68 °FScattered clouds.15 mph73%30.24 "HgN/A
8:30 AM66 °FScattered clouds.15 mph78%30.24 "HgN/A
8:00 AM66 °FScattered clouds.15 mph78%30.24 "HgN/A
7:30 AM66 °FSunny.14 mph78%30.24 "Hg10 mi
7:00 AM64 °FSunny.12 mph78%30.24 "Hg10 mi
6:30 AM63 °FClear.13 mph83%30.24 "Hg10 mi
6:00 AM64 °FClear.12 mph78%30.24 "Hg10 mi
5:30 AM64 °FClear.10 mph78%30.24 "Hg10 mi
5:00 AM63 °FClear.10 mph77%30.24 "Hg10 mi
Weather by CustomWeather, © 2016

See weather overviewHow to use our weather pages